EN

Hourly Weather Dziarnow

Today, 31 October, Saturday

Time Temperature Precipitation Wind Pressure Humidity
00:00 +9°C° 0.1 mm 1 mps 751 mmHg 84%
01:00 +8°C° 0 mm 1 mps 751 mmHg 87%
02:00 +8°C° 0 mm 1 mps 752 mmHg 86%
03:00 +7°C° 0 mm 1 mps 752 mmHg 86%
04:00 +7°C° 0 mm 1 mps 752 mmHg 86%
05:00 +7°C° 0 mm 1 mps 753 mmHg 87%
06:00 +6°C° 0 mm 1 mps 753 mmHg 88%
07:00 +6°C° 0 mm 1 mps 754 mmHg 88%
08:00 +7°C° 0 mm 1 mps 755 mmHg 82%
09:00 +9°C° 0 mm 1 mps 755 mmHg 76%
10:00 +10°C° 0 mm 1 mps 755 mmHg 70%
11:00 +11°C° 0 mm 1 mps 755 mmHg 67%
12:00 +10°C° 0 mm 2 mps 755 mmHg 64%
13:00 +12°C° 0 mm 2 mps 756 mmHg 62%
14:00 +10°C° 0 mm 2 mps 756 mmHg 66%
15:00 +9°C° 0 mm 2 mps 756 mmHg 70%
16:00 +9°C° 0 mm 1 mps 756 mmHg 74%
17:00 +9°C° 0 mm 1 mps 756 mmHg 77%
18:00 +8°C° 0 mm 1 mps 756 mmHg 80%
19:00 +7°C° 0 mm 0 mps 756 mmHg 84%
20:00 +7°C° 0 mm 0 mps 756 mmHg 85%
21:00 +6°C° 0 mm 0 mps 756 mmHg 86%
22:00 +7°C° 0 mm 1 mps 756 mmHg 87%
23:00 +7°C° 0 mm 1 mps 756 mmHg 87%

Tomorrow, 1 November, Sunday

Time Temperature Precipitation Wind Pressure Humidity
00:00 +6°C° 0 mm 1 mps 756 mmHg 88%
01:00 +6°C° 0 mm 1 mps 756 mmHg 89%
02:00 +5°C° 0 mm 2 mps 756 mmHg 89%
03:00 +5°C° 0 mm 2 mps 755 mmHg 90%
04:00 +4°C° 0 mm 2 mps 755 mmHg 90%
05:00 +4°C° 0 mm 2 mps 755 mmHg 90%
06:00 +4°C° 0 mm 2 mps 755 mmHg 90%
07:00 +4°C° 0 mm 2 mps 755 mmHg 89%
08:00 +5°C° 0 mm 3 mps 754 mmHg 83%
09:00 +7°C° 0 mm 3 mps 754 mmHg 77%
10:00 +8°C° 0 mm 4 mps 754 mmHg 71%
11:00 +10°C° 0 mm 4 mps 753 mmHg 67%
12:00 +11°C° 0 mm 4 mps 753 mmHg 63%
13:00 +12°C° 0 mm 4 mps 752 mmHg 60%
14:00 +11°C° 0 mm 3 mps 752 mmHg 64%
15:00 +10°C° 0 mm 3 mps 751 mmHg 68%
16:00 +9°C° 0 mm 3 mps 751 mmHg 72%
17:00 +9°C° 0 mm 3 mps 751 mmHg 74%
18:00 +9°C° 0 mm 3 mps 751 mmHg 76%
19:00 +9°C° 0 mm 3 mps 751 mmHg 78%
20:00 +9°C° 0.3 mm 3 mps 751 mmHg 82%
21:00 +9°C° 0.3 mm 3 mps 750 mmHg 86%
22:00 +10°C° 0.3 mm 3 mps 750 mmHg 90%
23:00 +10°C° 0.5 mm 3 mps 750 mmHg 92%

Day after tomorrow, 2 November, Monday

Time Temperature Precipitation Wind Pressure Humidity
00:00 +10°C° 0.5 mm 3 mps 750 mmHg 94%
01:00 +10°C° 0.5 mm 3 mps 750 mmHg 95%
02:00 +10°C° 0.1 mm 3 mps 749 mmHg 95%
03:00 +10°C° 0.1 mm 3 mps 749 mmHg 95%
04:00 +10°C° 0.1 mm 3 mps 749 mmHg 95%
05:00 +10°C° 0.2 mm 3 mps 749 mmHg 95%
06:00 +10°C° 0.2 mm 3 mps 749 mmHg 95%
07:00 +10°C° 0.2 mm 3 mps 749 mmHg 96%
08:00 +11°C° 0.1 mm 3 mps 749 mmHg 94%
09:00 +11°C° 0.1 mm 3 mps 749 mmHg 93%
10:00 +12°C° 0.1 mm 4 mps 749 mmHg 92%
11:00 +12°C° 0 mm 4 mps 749 mmHg 92%
12:00 +13°C° 0 mm 4 mps 749 mmHg 92%
13:00 +13°C° 0 mm 4 mps 749 mmHg 92%
14:00 +13°C° 0 mm 4 mps 749 mmHg 93%
15:00 +13°C° 0 mm 3 mps 749 mmHg 94%
16:00 +13°C° 0 mm 3 mps 749 mmHg 95%
17:00 +12°C° 0 mm 3 mps 750 mmHg 95%
18:00 +12°C° 0 mm 3 mps 750 mmHg 95%
19:00 +12°C° 0 mm 4 mps 750 mmHg 95%
20:00 +12°C° 0 mm 3 mps 750 mmHg 95%
21:00 +12°C° 0 mm 3 mps 750 mmHg 95%
22:00 +12°C° 0 mm 3 mps 750 mmHg 95%
23:00 +12°C° 0 mm 3 mps 750 mmHg 94%

3 November, Tuesday

Time Temperature Precipitation Wind Pressure Humidity
00:00 +13°C° 0 mm 4 mps 751 mmHg 94%
01:00 +13°C° 0 mm 4 mps 751 mmHg 93%
02:00 +13°C° 0 mm 4 mps 751 mmHg 93%
03:00 +13°C° 0 mm 4 mps 751 mmHg 92%
04:00 +13°C° 0 mm 4 mps 751 mmHg 92%
05:00 +13°C° 0 mm 4 mps 751 mmHg 92%
06:00 +13°C° 0 mm 4 mps 751 mmHg 92%
07:00 +13°C° 0 mm 4 mps 752 mmHg 93%
08:00 +14°C° 0 mm 4 mps 752 mmHg 90%
09:00 +15°C° 0 mm 4 mps 753 mmHg 87%
10:00 +17°C° 0 mm 4 mps 753 mmHg 84%
11:00 +15°C° 0.2 mm 5 mps 753 mmHg 83%
12:00 +15°C° 0.2 mm 5 mps 754 mmHg 83%
13:00 +15°C° 0.2 mm 5 mps 754 mmHg 82%
14:00 +14°C° 0 mm 4 mps 754 mmHg 78%
15:00 +13°C° 0 mm 4 mps 755 mmHg 74%
16:00 +13°C° 0 mm 3 mps 755 mmHg 70%
17:00 +12°C° 0 mm 3 mps 756 mmHg 71%
18:00 +11°C° 0 mm 3 mps 756 mmHg 72%
19:00 +10°C° 0 mm 3 mps 757 mmHg 73%
20:00 +10°C° 0 mm 2 mps 757 mmHg 74%
21:00 +10°C° 0 mm 2 mps 758 mmHg 75%
22:00 +9°C° 0 mm 2 mps 758 mmHg 76%
23:00 +9°C° 0 mm 2 mps 758 mmHg 77%

4 November, Wednesday

Time Temperature Precipitation Wind Pressure Humidity
00:00 +9°C° 0 mm 2 mps 758 mmHg 78%
01:00 +9°C° 0 mm 2 mps 759 mmHg 79%
02:00 +9°C° 0 mm 1 mps 759 mmHg 79%
03:00 +9°C° 0 mm 1 mps 759 mmHg 79%
04:00 +9°C° 0 mm 1 mps 759 mmHg 79%
05:00 +9°C° 0 mm 1 mps 759 mmHg 78%
06:00 +8°C° 0 mm 0 mps 759 mmHg 77%
07:00 +8°C° 0 mm 0 mps 760 mmHg 77%
08:00 +9°C° 0 mm 0 mps 760 mmHg 73%
09:00 +11°C° 0 mm 1 mps 760 mmHg 69%
10:00 +11°C° 0 mm 1 mps 760 mmHg 65%
11:00 +12°C° 0 mm 1 mps 760 mmHg 63%
12:00 +12°C° 0 mm 1 mps 760 mmHg 62%
13:00 +12°C° 0 mm 0 mps 760 mmHg 60%
14:00 +12°C° 0 mm 1 mps 760 mmHg 63%
15:00 +12°C° 0 mm 1 mps 760 mmHg 66%
16:00 +11°C° 0 mm 1 mps 760 mmHg 69%
17:00 +11°C° 0 mm 1 mps 760 mmHg 72%
18:00 +11°C° 0 mm 1 mps 760 mmHg 74%
19:00 +9°C° 0 mm 2 mps 760 mmHg 77%
20:00 +9°C° 0 mm 2 mps 761 mmHg 79%
21:00 +9°C° 0 mm 2 mps 761 mmHg 81%
22:00 +8°C° 0 mm 2 mps 761 mmHg 83%
23:00 +9°C° 0.3 mm 1 mps 761 mmHg 85%

5 November, Thursday

Time Temperature Precipitation Wind Pressure Humidity
00:00 +9°C° 0.3 mm 1 mps 761 mmHg 87%
01:00 +9°C° 0.3 mm 1 mps 761 mmHg 88%
02:00 +9°C° 0.2 mm 1 mps 761 mmHg 89%
03:00 +9°C° 0.2 mm 1 mps 761 mmHg 89%
04:00 +8°C° 0.2 mm 0 mps 761 mmHg 90%
05:00 +8°C° 0.1 mm 0 mps 761 mmHg 89%
06:00 +8°C° 0.1 mm 0 mps 761 mmHg 89%
07:00 +9°C° 0.1 mm 1 mps 761 mmHg 89%
08:00 +9°C° 0 mm 1 mps 762 mmHg 85%
09:00 +8°C° 0 mm 2 mps 762 mmHg 81%
10:00 +9°C° 0 mm 2 mps 762 mmHg 78%
11:00 +9°C° 0 mm 3 mps 762 mmHg 72%
12:00 +10°C° 0 mm 3 mps 762 mmHg 67%
13:00 +10°C° 0 mm 4 mps 762 mmHg 62%
14:00 +9°C° 0 mm 3 mps 762 mmHg 66%
15:00 +8°C° 0 mm 3 mps 762 mmHg 70%
16:00 +7°C° 0 mm 3 mps 763 mmHg 74%
17:00 +7°C° 0 mm 3 mps 763 mmHg 76%
18:00 +6°C° 0 mm 2 mps 763 mmHg 79%
19:00 +6°C° 0 mm 2 mps 764 mmHg 82%
20:00 +5°C° 0 mm 2 mps 764 mmHg 84%
21:00 +5°C° 0 mm 2 mps 764 mmHg 86%
22:00 +5°C° 0 mm 2 mps 764 mmHg 89%
23:00 +4°C° 0 mm 2 mps 764 mmHg 90%
Show more